TimeEST,TemperatureF,Dew PointF,Humidity,Sea Level PressureIn,VisibilityMPH,Wind Direction,Wind SpeedMPH,Gust SpeedMPH,PrecipitationIn,Events,Conditions,WindDirDegrees,DateUTC
12:53 AM,33.1,23.0,66,29.92,10.0,WSW,15.0,-,N/A,,Overcast,240,2013-02-12 05:53:00
1:53 AM,33.1,23.0,66,29.93,8.0,SW,15.0,-,0.00,Snow,Light Snow,230,2013-02-12 06:53:00
2:53 AM,32.0,23.0,69,29.96,8.0,West,10.4,-,0.00,Snow,Light Snow,260,2013-02-12 07:53:00
3:53 AM,32.0,21.9,66,29.97,7.0,West,13.8,18.4,0.00,Snow,Light Snow,260,2013-02-12 08:53:00
4:19 AM,32.0,21.2,64,29.96,8.0,WSW,15.0,-,0.00,Snow,Light Snow,250,2013-02-12 09:19:00
4:53 AM,32.0,21.0,64,29.99,8.0,WSW,12.7,-,0.00,Snow,Light Snow,250,2013-02-12 09:53:00
5:53 AM,32.0,21.9,66,30.00,8.0,WSW,10.4,-,0.00,Snow,Light Snow,240,2013-02-12 10:53:00
6:53 AM,32.0,23.0,69,30.02,9.0,WSW,12.7,-,0.00,Snow,Light Snow,250,2013-02-12 11:53:00
7:53 AM,32.0,21.9,66,30.04,9.0,West,9.2,18.4,0.00,Snow,Light Snow,260,2013-02-12 12:53:00
8:53 AM,32.0,21.9,66,30.06,9.0,WSW,11.5,-,0.00,Snow,Light Snow,240,2013-02-12 13:53:00
9:53 AM,32.0,21.9,66,30.06,9.0,WSW,12.7,-,0.00,Snow,Light Snow,250,2013-02-12 14:53:00
10:53 AM,32.0,21.9,66,30.07,9.0,WSW,13.8,-,0.00,,Overcast,250,2013-02-12 15:53:00
11:53 AM,33.1,21.9,64,30.06,10.0,SW,12.7,-,N/A,,Overcast,230,2013-02-12 16:53:00
12:53 PM,33.1,21.9,64,30.04,10.0,WSW,10.4,19.6,N/A,,Overcast,240,2013-02-12 17:53:00
1:53 PM,34.0,21.9,61,29.98,10.0,West,12.7,-,N/A,,Overcast,260,2013-02-12 18:53:00
2:53 PM,34.0,21.9,61,29.98,10.0,WSW,10.4,-,N/A,,Overcast,240,2013-02-12 19:53:00
3:53 PM,34.0,21.9,61,30.00,10.0,SW,11.5,-,N/A,,Overcast,220,2013-02-12 20:53:00
4:53 PM,34.0,21.0,59,29.99,10.0,WSW,9.2,-,N/A,,Overcast,250,2013-02-12 21:53:00
5:53 PM,33.1,21.9,64,29.99,10.0,WSW,5.8,-,N/A,,Overcast,240,2013-02-12 22:53:00
6:53 PM,33.1,21.9,64,29.99,10.0,WSW,6.9,-,N/A,,Overcast,240,2013-02-12 23:53:00
7:53 PM,32.0,21.0,64,29.99,10.0,West,6.9,-,N/A,,Overcast,260,2013-02-13 00:53:00
8:53 PM,30.9,21.0,67,29.97,10.0,West,8.1,-,N/A,,Overcast,270,2013-02-13 01:53:00
9:49 PM,30.2,19.4,64,29.94,10.0,West,8.1,-,N/A,,Overcast,280,2013-02-13 02:49:00
9:53 PM,30.0,19.9,66,29.96,10.0,West,10.4,-,N/A,,Overcast,270,2013-02-13 02:53:00
10:53 PM,30.0,19.0,64,29.95,10.0,West,12.7,-,N/A,,Overcast,280,2013-02-13 03:53:00
11:53 PM,30.0,19.0,64,29.95,10.0,West,10.4,-,N/A,,Overcast,260,2013-02-13 04:53:00